Latest Coastal Weather Observations for Point Perpendicular

IDN60701

Issued at 11:01 am EDT Thursday 8 December 2016 (issued every 10 minutes, with the page automatically refreshed every 10 minutes)

About coastal observations | Map of coastal stations | Coastal observations for NSW | Marine services | Other Formats
Station Details ID: 068151 Name: POINT PERPENDICULAR AWS Lat: -35.09 Lon: 150.80 Height: 85.0 m
Data from the previous 72 hours. | See also: Recent months at Point Perpendicular
Date/Time
EDT
Temp
°C
Wind Pressure Rain since
9am
mm
Weather Cloud Vis
km
Sea
Height
m
Swell
Dir  Spd
kts
Gust
kts
hPa Trend Height
m
Period
s
Dir
08/11:00am 22.6 NNE 18 26 1004.5 - 0.0 - - - - - - -
08/10:30am 23.5 NNE 19 25 1005.1 - 0.0 - - - - - - -
08/10:00am 22.7 NNE 16 23 1005.7 - 0.0 - - - - - - -
08/09:30am 22.5 NNE 15 24 1006.3 - 0.0 - - - - - - -
08/09:00am 22.1 NNE 16 24 1006.9 - 3.0 - - - - - - -
08/08:30am 21.6 N 17 23 1007.7 - 3.0 - - - - - - -
08/08:00am 21.0 N 17 24 1007.8 - 3.0 - - - - - - -
08/07:30am 20.7 N 16 26 1008.4 - 3.0 - - - - - - -
08/07:27am 20.8 N 15 26 1008.5 - 3.0 - - - - - - -
08/07:00am 20.1 N 15 22 1008.4 - 3.0 - - - - - - -
08/06:30am 19.6 N 13 19 1008.3 - 3.0 - - - - - - -
08/06:00am 19.3 N 13 19 1008.2 - 3.0 - - - - - - -
08/05:30am 19.1 N 14 20 1008.5 - 3.0 - - - - - - -
08/05:00am 19.2 N 14 19 1008.7 - 3.0 - - - - - - -
08/04:30am 19.2 N 12 20 1008.9 - 3.0 - - - - - - -
08/04:00am 19.2 N 12 17 1009.4 - 3.0 - - - - - - -
08/03:30am 19.4 N 9 14 1009.8 - 3.0 - - - - - - -
08/03:00am 19.4 N 11 15 1010.2 - 3.0 - - - - - - -
08/02:30am 19.7 N 14 20 1010.7 - 3.0 - - - - - - -
08/02:00am 19.6 N 14 22 1011.2 - 3.0 - - - - - - -
08/01:39am 19.7 N 15 25 1011.5 - 3.0 - - - - - - -
08/01:30am 19.8 N 16 23 1011.6 - 3.0 - - - - - - -
08/01:00am 20.1 N 16 23 1012.0 - 3.0 - - - - - - -
08/12:39am 20.1 NNE 15 25 1012.2 - 3.0 - - - - - - -
08/12:30am 20.2 NNE 15 21 1012.4 - 3.0 - - - - - - -
08/12:00am 20.1 NNE 15 21 1012.6 - 3.0 - - - - - - -
 
Date/Time
EDT
Temp
°C
Wind Pressure Rain since
9am
mm
Weather Cloud Vis
km
Sea
Height
m
Swell
Dir  Spd
kts
Gust
kts
hPa Trend Height
m
Period
s
Dir
07/11:30pm 20.2 NNE 15 22 1012.8 - 3.0 - - - - - - -
07/11:00pm 20.1 NNE 12 20 1013.2 - 3.0 - - - - - - -
07/10:30pm 20.1 NNE 11 17 1013.5 - 3.0 - - - - - - -
07/10:00pm 20.0 NE 10 14 1013.7 - 3.0 - - - - - - -
07/09:30pm 20.0 NE 9 14 1013.8 - 3.0 - - - - - - -
07/09:00pm 19.9 NE 10 14 1014.0 - 3.0 - - - - - - -
07/08:30pm 19.9 NE 9 14 1014.0 - 3.0 - - - - - - -
07/08:00pm 19.8 NE 9 13 1014.1 - 3.0 - - - - - - -
07/07:30pm 19.8 NE 9 13 1014.0 - 3.0 - - - - - - -
07/07:00pm 19.7 NE 8 12 1013.8 - 3.0 - - - - - - -
07/06:30pm 19.8 ENE 7 12 1013.8 - 3.0 - - - - - - -
07/06:00pm 19.7 ENE 7 11 1013.7 - 3.0 - - - - - - -
07/05:30pm 19.7 ENE 8 12 1013.6 - 3.0 - - - - - - -
07/05:00pm 20.2 ENE 9 15 1013.5 - 3.0 - - - - - - -
07/04:30pm 21.0 ENE 10 15 1013.7 - 3.0 - - - - - - -
07/04:00pm 20.6 E 9 13 1014.0 - 3.0 - - - - - - -
07/03:30pm 20.7 ENE 9 14 1014.2 - 3.0 - - - - - - -
07/03:00pm 21.4 ENE 9 15 1014.4 - 3.0 - - - - - - -
07/02:30pm 20.5 ENE 10 12 1014.5 - 3.0 - - - - - - -
07/02:00pm 20.9 ESE 7 11 1014.8 - 3.0 - - - - - - -
07/01:30pm 19.6 ESE 6 9 1015.3 - 3.0 - - - - - - -
07/01:00pm 19.6 SE 5 7 1015.8 - 3.0 - - - - - - -
07/12:30pm 20.3 SSE 5 8 1016.0 - 3.0 - - - - - - -
07/12:00pm 18.5 S 4 6 1016.3 - 3.0 - - - - - - -
07/11:30am 17.4 WSW 4 5 1016.6 - 3.0 - - - - - - -
07/11:00am 17.1 SW 3 5 1016.6 - 3.0 - - - - - - -
07/10:30am 17.2 SSW 3 5 1016.2 - 2.8 - - - - - - -
07/10:00am 17.1 SW 4 7 1016.3 - 1.8 - - - - - - -
07/09:30am 17.2 SSW 5 9 1016.1 - 0.6 - - - - - - -
07/09:00am 17.5 S 4 6 1016.0 - 4.8 Rain - - - - - -
07/08:30am 17.9 SE 3 6 1015.7 - 4.4 - - - - - - -
07/08:00am 17.3 SW 2 6 1015.5 - 4.4 - - - - - - -
07/07:30am 17.7 SSW 3 5 1015.2 - 3.2 - - - - - - -
07/07:00am 17.9 ESE 4 8 1014.9 - 2.4 - - - - - - -
07/06:30am 18.2 ESE 5 10 1014.7 - 1.6 - - - - - - -
07/06:00am 18.4 SE 6 13 1014.3 - 0.8 Recent precip. - - - - - -
07/05:30am 18.1 SE 7 12 1014.0 - 0.8 - - - - - - -
07/05:00am 18.3 SE 7 12 1013.3 - 0.6 - - - - - - -
07/04:30am 18.4 SE 8 13 1013.0 - 0.6 - - - - - - -
07/04:00am 18.5 SE 7 10 1012.8 - 0.6 - - - - - - -
07/03:30am 18.4 SE 7 11 1012.9 - 0.6 - - - - - - -
07/03:00am 18.1 SE 7 12 1012.9 - 0.6 - - - - - - -
07/02:30am 18.3 SSE 7 12 1013.4 - 0.6 - - - - - - -
07/02:00am 18.3 SSE 8 12 1013.6 - 0.6 - - - - - - -
07/01:30am 18.2 SSE 7 12 1013.2 - 0.4 - - - - - - -
07/01:00am 18.4 SSE 8 15 1013.4 - 0.4 - - - - - - -
07/12:30am 18.4 SSE 9 14 1013.5 - 0.2 - - - - - - -
07/12:00am 18.7 SSE 9 13 1013.2 - 0.2 Recent precip. - - - - - -
 
Date/Time
EDT
Temp
°C
Wind Pressure Rain since
9am
mm
Weather Cloud Vis
km
Sea
Height
m
Swell
Dir  Spd
kts
Gust
kts
hPa Trend Height
m
Period
s
Dir
06/11:30pm 18.5 S 10 16 1012.9 - 0.2 - - - - - - -
06/11:00pm 18.9 S 11 18 1013.1 - 0.0 - - - - - - -
06/10:30pm 19.0 S 11 17 1012.8 - 0.0 - - - - - - -
06/10:00pm 19.4 S 11 18 1012.4 - 0.0 - - - - - - -
06/09:30pm 19.7 SW 10 19 1012.4 - 0.0 - - - - - - -
06/09:00pm 19.9 SW 10 17 1011.9 - 0.0 - - - - - - -
06/08:30pm 20.1 SW 11 17 1011.4 - 0.0 - - - - - - -
06/08:00pm 20.0 SW 14 21 1010.5 - 0.0 - - - - - - -
06/07:31pm 20.1 SW 15 25 1009.4 - 0.0 - - - - - - -
06/07:30pm 20.1 SW 15 23 1009.4 - 0.0 - - - - - - -
06/07:00pm 20.9 SW 13 21 1009.3 - 0.0 - - - - - - -
06/06:30pm 22.8 WNW 4 9 1009.0 - 0.0 - - - - - - -
06/06:00pm 22.7 NNW 4 7 1008.1 - 0.0 - - - - - - -
06/05:30pm 22.4 N 9 13 1007.8 - 0.0 - - - - - - -
06/05:00pm 21.7 N 8 11 1008.2 - 0.0 - - - - - - -
06/04:30pm 21.1 N 9 13 1008.9 - 0.0 - - - - - - -
06/04:00pm 20.9 N 10 15 1009.4 - 0.0 - - - - - - -
06/03:30pm 20.9 N 8 13 1009.7 - 0.0 - - - - - - -
06/03:00pm 21.4 N 8 12 1010.1 - 0.0 - - - - - - -
06/02:30pm 21.1 N 8 12 1010.1 - 0.0 - - - - - - -
06/02:00pm 21.0 NNE 8 11 1010.3 - 0.0 - - - - - - -
06/01:30pm 20.4 NNE 7 11 1010.4 - 0.0 - - - - - - -
06/01:00pm 19.9 NNE 7 9 1010.5 - 0.0 - - - - - - -
06/12:30pm 19.9 NNE 6 8 1010.5 - 0.0 - - - - - - -
06/12:00pm 19.8 NE 5 7 1011.1 - 0.0 - - - - - - -
06/11:30am 19.5 NNE 3 5 1011.7 - 0.0 - - - - - - -
06/11:00am 19.3 NW 2 5 1011.6 - 0.0 - - - - - - -
06/10:30am 19.1 NNW 1 3 1011.8 - 0.0 - - - - - - -
06/10:00am 19.2 NNE 4 6 1011.5 - 0.0 - - - - - - -
06/09:30am 18.6 CALM 0 3 1011.9 - 0.0 - - - - - - -
06/09:00am 18.4 SW 4 6 1012.5 - 18.8 Rain - - - - - -
06/08:30am 18.5 SW 3 5 1012.8 - 16.8 - - - - - - -
06/08:00am 18.4 SW 2 4 1012.4 - 16.8 - - - - - - -
06/07:30am 18.2 SSW 1 2 1012.1 - 16.8 - - - - - - -
06/07:00am 18.2 SSW 1 2 1012.0 - 16.8 - - - - - - -
06/06:30am 18.0 S 5 8 1011.8 - 16.8 - - - - - - -
06/06:00am 18.1 SSW 5 8 1011.8 - 16.8 - - - - - - -
06/05:30am 18.0 S 4 6 1011.6 - 16.8 - - - - - - -
06/05:00am 17.8 S 5 8 1011.7 - 16.8 - - - - - - -
06/04:30am 17.6 S 7 10 1011.7 - 16.8 - - - - - - -
06/04:00am 17.6 S 7 10 1011.8 - 16.8 - - - - - - -
06/03:30am 17.9 SSW 8 12 1011.8 - 16.8 - - - - - - -
06/03:00am 18.1 SSW 9 14 1012.0 - 16.6 Recent precip. - - - - - -
06/02:30am 18.7 SW 6 8 1012.3 - 16.4 - - - - - - -
06/02:00am 18.6 WSW 5 6 1012.8 - 16.4 - - - - - - -
06/01:30am 18.5 WSW 3 6 1013.1 - 15.2 - - - - - - -
06/01:00am 18.5 WSW 4 6 1013.2 - 14.8 - - - - - - -
06/12:30am 18.6 W 2 5 1013.3 - 13.2 - - - - - - -
06/12:00am 18.5 W 2 4 1013.3 - 12.4 Recent precip. - - - - - -
 
Date/Time
EDT
Temp
°C
Wind Pressure Rain since
9am
mm
Weather Cloud Vis
km
Sea
Height
m
Swell
Dir  Spd
kts
Gust
kts
hPa Trend Height
m
Period
s
Dir
05/11:30pm 18.7 WNW 2 3 1013.5 - 12.2 - - - - - - -
05/11:00pm 18.1 S 7 11 1013.1 - 11.0 - - - - - - -
05/10:30pm 18.1 S 13 21 1013.6 - 7.2 - - - - - - -
05/10:00pm 18.2 S 14 21 1013.5 - 3.8 - - - - - - -
05/09:30pm 19.5 S 13 22 1013.2 - 0.2 - - - - - - -
05/09:17pm 19.8 SSW 16 27 1013.3 - 0.0 - - - - - - -
05/09:00pm 19.6 S 17 25 1012.6 - 0.0 - - - - - - -
05/08:32pm 20.2 SSW 15 25 1012.8 - 0.0 - - - - - - -
05/08:30pm 20.5 SSW 15 20 1012.8 - 0.0 - - - - - - -
05/08:00pm 20.8 SSW 14 22 1011.8 - 0.0 - - - - - - -
05/07:30pm 21.1 SSW 15 23 1010.9 - 0.0 - - - - - - -
05/07:00pm 21.6 SSW 13 21 1010.0 - 0.0 - - - - - - -
05/06:30pm 23.3 SSW 12 19 1009.0 - 0.0 - - - - - - -
05/06:00pm 25.2 WSW 7 17 1008.0 - 0.0 - - - - - - -
05/05:59pm 25.3 WSW 6 17 1007.9 - 0.0 - - - - - - -
05/05:30pm 30.4 NNE 6 8 1006.4 - 0.0 - - - - - - -
05/05:00pm 29.4 NE 4 7 1006.6 - 0.0 - - - - - - -
05/04:30pm 28.6 N 3 5 1006.9 - 0.0 - - - - - - -
05/04:00pm 26.8 NE 3 5 1006.7 - 0.0 - - - - - - -
05/03:30pm 26.3 N 7 8 1006.7 - 0.0 - - - - - - -
05/03:00pm 28.0 NNE 8 10 1006.5 - 0.0 - - - - - - -
05/02:30pm 27.9 NNE 9 12 1006.7 - 0.0 - - - - - - -
05/02:00pm 29.7 NNE 9 14 1006.6 - 0.0 - - - - - - -
05/01:30pm 26.2 NNE 11 15 1006.7 - 0.0 - - - - - - -
05/01:00pm 25.9 NNE 10 15 1007.0 - 0.0 - - - - - - -
05/12:30pm 25.4 NNE 12 16 1007.6 - 0.0 - - - - - - -
05/12:00pm 25.7 NNE 13 19 1007.3 - 0.0 - - - - - - -
05/11:30am 27.0 NNE 13 19 1007.6 - 0.0 - - - - - - -

Other Formats:

Comma delimited format used in spreadsheet applications
http://www.bom.gov.au/fwo/IDN60701/IDN60701.95940.axf

JavaScript Object Notation format (JSON) in row-major order
http://www.bom.gov.au/fwo/IDN60701/IDN60701.95940.json